Simultaneous Nadir Overpasses (SNOs) Predictions

Prediction of SNOs between METOP-A and TERRA Satellite Orbit:

Table of predicted SNOs for the next 14.0 days since TLE Epoch: 4/30/2016
Index Date (METOP-A) Time (METOP-A) Lat,Lon (METOP-A) SZA (METOP-A ) Date (TERRA) Time (TERRA) Lat,Lon (TERRA) SZA (TERRA ) Distance(km) Time Diff (sec)
1 05/02/2016 08:56:10 81.31, 93.01 68.70 05/02/2016 08:57:11 81.31, 93.11 68.74 1.83 61
2 05/02/2016 09:46:49 -81.32, -98.91 111.23 05/02/2016 09:46:37 -81.33, -98.89 111.22 0.86 12
3 05/05/2016 04:30:32 81.32, 159.87 67.95 05/05/2016 04:31:29 81.32, 159.77 67.97 1.79 57
4 05/05/2016 05:21:12 -81.32, -32.44 112.02 05/05/2016 05:20:56 -81.32, -32.60 112.05 2.63 16
5 05/08/2016 00:04:55 81.31,-134.07 67.14 05/08/2016 00:05:47 81.31,-134.01 67.17 1.12 52
6 05/
